Mora, MN

5:25 PM CDT on September 21, 2017 (GMT -0500)
Mora Municipal

Weather History for KJMR - March, 2013

Change the Weather History Date:

Tuesday, March 12, 2013

  Actual Average Record
Temperature  
Mean Temperature 22 °F -  
Max Temperature 30 °F 37 °F 64 °F (2016)
Min Temperature 14 °F 16 °F -18 °F (2009)
Degree Days  
Heating Degree Days 43    
Moisture  
Dew Point 12 °F    
Average Humidity 66    
Maximum Humidity 93    
Minimum Humidity 47    
Precipitation  
Precipitation 0.00 in - - ()
Sea Level Pressure  
Sea Level Pressure 29.95 in    
Wind  
Wind Speed 8 mph (NW)    
Max Wind Speed 21 mph    
Max Gust Speed 29 mph    
Visibility 10 miles    
Events Snow    
Averages and records for this station are not official NWS values.
T = Trace of Precipitation, MM = Missing Value Source: NWS Daily Summary

Daily Weather History Graph

Daily Weather History Graph

Search for Another Location

Airport or City:

Trip Planner

Search our weather history database for the weather conditions in past years. The results will help you decide how hot, cold, wet, or windy it might be!

Date:

Astronomy

Mar. 12, 2013 Rise Set
Actual Time 7:30 AM CDT 7:15 PM CDT
Civil Twilight 7:01 AM CDT 7:45 PM CDT
Nautical Twilight 6:26 AM CDT 8:19 PM CDT
Astronomical Twilight 5:51 AM CDT 8:54 PM CDT
Moon 7:32 AM CDT (3/12) 8:37 PM CDT (3/12)
Length of Visible Light 12h 43m
Length of Day
11h 44m
New Moon, 1% of the Moon is Illuminated
Mar 12
New Moon
Mar 19
First Quarter
Mar 27
Full
Apr 2
Last Quarter
Apr 10
New

Hourly Weather History & Observations

Time (CDT) Temp. Windchill Dew Point Humidity Pressure Visibility Wind Dir Wind Speed Gust Speed Precip Events Conditions
12:12 AM 21.2 °F 14.9 °F 17.6 °F 86% 29.81 in 10.0 mi West 4.6 mph - N/A   Mostly Cloudy
12:31 AM 19.4 °F 12.8 °F 14.0 °F 80% 29.82 in 10.0 mi West 4.6 mph - N/A   Scattered Clouds
12:52 AM 19.4 °F 14.3 °F 15.8 °F 86% 29.81 in 10.0 mi West 3.5 mph - N/A   Scattered Clouds
1:12 AM 19.4 °F 12.8 °F 15.8 °F 86% 29.81 in 10.0 mi West 4.6 mph - N/A   Scattered Clouds
1:32 AM 19.4 °F 12.8 °F 14.0 °F 80% 29.81 in 10.0 mi West 4.6 mph - N/A   Clear
1:52 AM 19.4 °F 14.3 °F 14.0 °F 80% 29.81 in 10.0 mi WNW 3.5 mph - N/A   Clear
2:12 AM 17.6 °F - 14.0 °F 86% 29.81 in 10.0 mi Calm Calm - N/A   Clear
2:32 AM 14.0 °F - 12.2 °F 93% 29.81 in 10.0 mi Calm Calm - N/A   Clear
2:51 AM 14.0 °F 8.2 °F 10.4 °F 86% 29.82 in 10.0 mi WNW 3.5 mph - N/A   Mostly Cloudy
3:12 AM 17.6 °F 12.3 °F 14.0 °F 86% 29.82 in 10.0 mi WNW 3.5 mph - N/A   Overcast
3:31 AM 17.6 °F 9.3 °F 14.0 °F 86% 29.81 in 10.0 mi NW 5.8 mph - N/A   Overcast
3:52 AM 19.4 °F 12.8 °F 14.0 °F 80% 29.82 in 10.0 mi NW 4.6 mph - N/A   Overcast
4:12 AM 19.4 °F 10.4 °F 14.0 °F 80% 29.82 in 10.0 mi NW 6.9 mph - N/A   Overcast
4:32 AM 19.4 °F 12.8 °F 14.0 °F 80% 29.82 in 10.0 mi NW 4.6 mph - N/A   Overcast
4:52 AM 19.4 °F 10.4 °F 14.0 °F 80% 29.82 in 10.0 mi NNW 6.9 mph - N/A   Overcast
5:12 AM 19.4 °F 11.5 °F 14.0 °F 80% 29.82 in 10.0 mi NW 5.8 mph - N/A   Overcast
5:32 AM 19.4 °F 10.4 °F 12.2 °F 74% 29.83 in 10.0 mi NW 6.9 mph - N/A   Overcast
5:52 AM 17.6 °F 8.2 °F 12.2 °F 79% 29.84 in 10.0 mi NW 6.9 mph - N/A   Mostly Cloudy
6:12 AM 17.6 °F 8.2 °F 12.2 °F 79% 29.85 in 10.0 mi NW 6.9 mph - N/A   Overcast
6:32 AM 17.6 °F 9.3 °F 12.2 °F 79% 29.85 in 10.0 mi WNW 5.8 mph - N/A   Overcast
6:52 AM 17.6 °F 9.3 °F 12.2 °F 79% 29.86 in 10.0 mi NW 5.8 mph - N/A   Overcast
7:12 AM 17.6 °F 8.2 °F 10.4 °F 73% 29.86 in 10.0 mi NW 6.9 mph - N/A   Overcast
7:32 AM 17.6 °F 8.2 °F 10.4 °F 73% 29.87 in 10.0 mi NW 6.9 mph - N/A   Mostly Cloudy
7:52 AM 17.6 °F 7.3 °F 10.4 °F 73% 29.87 in 10.0 mi NW 8.1 mph - N/A   Mostly Cloudy
8:32 AM 17.6 °F 6.4 °F 10.4 °F 73% 29.88 in 10.0 mi NW 9.2 mph - N/A   Scattered Clouds
8:52 AM 17.6 °F 5.7 °F 10.4 °F 73% 29.88 in 10.0 mi NNW 10.4 mph - N/A   Mostly Cloudy
9:11 AM 17.6 °F 5.7 °F 10.4 °F 73% 29.89 in 10.0 mi NW 10.4 mph - N/A Snow Light Snow
9:32 AM 19.4 °F 6.0 °F 12.2 °F 74% 29.89 in 10.0 mi NNW 13.8 mph - N/A Snow Light Snow
9:51 AM 19.4 °F 6.6 °F 12.2 °F 74% 29.90 in 10.0 mi NW 12.7 mph - N/A   Overcast
10:12 AM 19.4 °F 6.6 °F 12.2 °F 74% 29.91 in 10.0 mi NW 12.7 mph - N/A   Overcast
10:32 AM 21.2 °F 8.9 °F 12.2 °F 68% 29.91 in 10.0 mi NW 12.7 mph - N/A   Overcast
10:52 AM 23.0 °F 11.1 °F 14.0 °F 68% 29.92 in 10.0 mi NNW 12.7 mph 17.3 mph N/A   Overcast
11:12 AM 24.8 °F 13.4 °F 14.0 °F 64% 29.92 in 10.0 mi NW 12.7 mph - N/A   Scattered Clouds
11:32 AM 26.6 °F 15.2 °F 14.0 °F 59% 29.92 in 10.0 mi NW 13.8 mph 19.6 mph N/A   Scattered Clouds
11:52 AM 26.6 °F 14.3 °F 14.0 °F 59% 29.92 in 10.0 mi NW 16.1 mph 23.0 mph N/A   Scattered Clouds
12:12 PM 26.6 °F 14.3 °F 14.0 °F 59% 29.93 in 10.0 mi NNW 16.1 mph 26.5 mph N/A   Scattered Clouds
12:32 PM 26.6 °F 13.4 °F 14.0 °F 59% 29.94 in 10.0 mi NNW 18.4 mph 24.2 mph N/A   Mostly Cloudy
12:52 PM 26.6 °F 13.1 °F 12.2 °F 55% 29.94 in 10.0 mi NNW 19.6 mph 26.5 mph N/A   Mostly Cloudy
1:12 PM 28.4 °F 15.4 °F 12.2 °F 51% 29.94 in 10.0 mi NW 19.6 mph 24.2 mph N/A   Mostly Cloudy
1:32 PM 26.6 °F 13.4 °F 12.2 °F 55% 29.94 in 10.0 mi NW 18.4 mph 24.2 mph N/A   Scattered Clouds
1:52 PM 28.4 °F 16.2 °F 12.2 °F 51% 29.94 in 10.0 mi NW 17.3 mph - N/A   Scattered Clouds
2:12 PM 28.4 °F 16.2 °F 12.2 °F 51% 29.94 in 10.0 mi NW 17.3 mph 26.5 mph N/A   Scattered Clouds
2:32 PM 28.4 °F 15.8 °F 12.2 °F 51% 29.95 in 10.0 mi NNW 18.4 mph 28.8 mph N/A   Scattered Clouds
2:51 PM 28.4 °F 15.4 °F 10.4 °F 47% 29.95 in 10.0 mi NW 19.6 mph 25.3 mph N/A   Mostly Cloudy
3:12 PM 30.2 °F 17.4 °F 12.2 °F 47% 29.96 in 10.0 mi NW 20.7 mph 26.5 mph N/A   Mostly Cloudy
3:32 PM 28.4 °F 17.0 °F 10.4 °F 47% 29.96 in 10.0 mi NW 15.0 mph 27.6 mph N/A   Scattered Clouds
3:52 PM 28.4 °F 15.4 °F 10.4 °F 47% 29.97 in 10.0 mi NW 19.6 mph 25.3 mph N/A   Mostly Cloudy
4:12 PM 28.4 °F 15.4 °F 12.2 °F 51% 29.98 in 10.0 mi NNW 19.6 mph 25.3 mph N/A   Mostly Cloudy
4:32 PM 28.4 °F 17.0 °F 12.2 °F 51% 29.99 in 10.0 mi NNW 15.0 mph 24.2 mph N/A   Overcast
4:52 PM 28.4 °F 17.0 °F 12.2 °F 51% 29.99 in 10.0 mi NW 15.0 mph 25.3 mph N/A   Overcast
5:12 PM 26.6 °F 13.8 °F 12.2 °F 55% 30.01 in 10.0 mi NNW 17.3 mph 20.7 mph N/A   Overcast
5:32 PM 26.6 °F 15.7 °F 12.2 °F 55% 30.02 in 10.0 mi North 12.7 mph 27.6 mph N/A   Overcast
5:52 PM 26.6 °F 17.5 °F 12.2 °F 55% 30.04 in 10.0 mi North 9.2 mph 26.5 mph N/A   Overcast
6:12 PM 26.6 °F 16.8 °F 14.0 °F 59% 30.05 in 10.0 mi North 10.4 mph 19.6 mph N/A   Overcast
6:32 PM 26.6 °F 15.7 °F 14.0 °F 59% 30.05 in 10.0 mi North 12.7 mph 20.7 mph N/A   Overcast
6:52 PM 24.8 °F 14.6 °F 12.2 °F 59% 30.06 in 10.0 mi North 10.4 mph 19.6 mph N/A   Overcast
7:12 PM 24.8 °F 15.3 °F 12.2 °F 59% 30.07 in 10.0 mi NNW 9.2 mph 18.4 mph N/A   Overcast
7:32 PM 24.8 °F 13.4 °F 12.2 °F 59% 30.08 in 10.0 mi NNW 12.7 mph 20.7 mph N/A   Overcast
7:52 PM 24.8 °F 14.6 °F 14.0 °F 64% 30.10 in 10.0 mi NNW 10.4 mph 17.3 mph N/A   Overcast
8:12 PM 23.0 °F 13.9 °F 12.2 °F 63% 30.10 in 10.0 mi NNW 8.1 mph - N/A   Overcast
8:32 PM 24.8 °F 16.1 °F 10.4 °F 54% 30.11 in 10.0 mi North 8.1 mph 17.3 mph N/A   Overcast
8:52 PM 24.8 °F 15.3 °F 8.6 °F 50% 30.12 in 10.0 mi North 9.2 mph 19.6 mph N/A   Overcast
9:12 PM 23.0 °F 14.7 °F 8.6 °F 54% 30.13 in 10.0 mi North 6.9 mph - N/A   Overcast
9:32 PM 23.0 °F 14.7 °F 6.8 °F 50% 30.14 in 10.0 mi North 6.9 mph - N/A   Mostly Cloudy
9:52 PM 21.2 °F 11.7 °F 6.8 °F 54% 30.14 in 10.0 mi NNW 8.1 mph - N/A   Scattered Clouds
10:12 PM 21.2 °F 12.6 °F 5.0 °F 50% 30.15 in 10.0 mi NW 6.9 mph - N/A   Scattered Clouds
10:32 PM 19.4 °F 11.5 °F 5.0 °F 54% 30.16 in 10.0 mi NW 5.8 mph - N/A   Scattered Clouds
10:52 PM 19.4 °F 11.5 °F 5.0 °F 54% 30.16 in 10.0 mi NW 5.8 mph - N/A   Clear
11:12 PM 19.4 °F 10.4 °F 6.8 °F 58% 30.17 in 10.0 mi NW 6.9 mph - N/A   Clear
11:32 PM 19.4 °F 9.5 °F 6.8 °F 58% 30.17 in 10.0 mi NNW 8.1 mph - N/A   Clear
11:52 PM 19.4 °F 9.5 °F 6.8 °F 58% 30.18 in 10.0 mi NNW 8.1 mph - N/A   Clear